LTAJ

Details ICAO LTAJ (GZT)
Name OGUZELI
Region Turkey
Timezone Europe/Istanbul (UTC+3.0)
Plans Departing 42
Arriving 67
Stats Elevation 2,315 ft / 706 m (AMSL)
Location 36.947350° 37.478064°
Runways 2
Magnetic Variation 5.454° E
Sunrise 2018-05-24 02:17:31 UTC / 2018-05-24 05:17:31 Local
Sunset 2018-05-24 16:39:11 UTC / 2018-05-24 19:39:11 Local
Advertisement - Login to hide

Runways

ID Width Length Bearing (true) Bearing (mag) Surface Threshold Offset Overrun Length
10L 148 ft / 45 m 9,822 ft / 2,994 m 105.04° 99.59° Concrete 427 ft / 130 m 197 ft / 60 m
10R 100 ft / 30 m 9,821 ft / 2,994 m 105.04° 99.59° Concrete 328 ft / 100 m 197 ft / 60 m
28L 100 ft / 30 m 9,821 ft / 2,994 m 285.06° 279.61° Concrete 0 ft / 0 m 197 ft / 60 m
28R 148 ft / 45 m 9,822 ft / 2,994 m 285.06° 279.61° Concrete 0 ft / 0 m 623 ft / 190 m

Map

Weather


0- 5 10 15 20 25 30 35+ Temperature / ° C

Clouds and Precipitation
Forecast for 2018-05-23 18:00 UTC. Updated 4 hours ago

Ground ~20,000 ft ~40,000 ft Winds

METAR

LTAJ 232120Z VRB01KT CAVOK 18/12 Q1014 NOSIG

TAF

TAF AMD LTAJ 231429Z 2314/2412 VRB02KT 9999 SCT040 TEMPO 2314/2316 36012KT -TSRA FEW025CB BKN030 BECMG 2316/2318 CAVOK

Frequencies

Tower 121.90 MHz TWR
Tower 120.10 MHz TWR
Approach 121.90 MHz APP
Tower 122.10 MHz TWR
Approach 122.10 MHz APP
Approach 120.10 MHz APP
Warning: Do not use this data for real-world aviation or navigation. No guarantee of current accuracy is given.